Date String (YYYY-MM-DD hh:mm:ss) UTC,Instrument flags,Ambient pressure (hPa),Sample flow (lpm),Bypass flow (lpm),Sample temperature (°C),Ambient temperature (°C),ASC tube jacket temperature (°C),LED temperature (°C),Box temperature (°C),Sample RH (%),Span deviation,Mass concentration (μg/m³),Mass concentration (μg/m³),Mass concentration (μg/m³)
DateTimeUTC,F1_M11,P_M11,Q1_M11,Q2_M11,T1_M11,T2_M11,T3_M11,T4_M11,T5_M11,U1_M11,ZSPAN_M11,X2_M11,X0_M11,X1_M11
2023-05-02 21:00:00,,0828.8,5.00,0.00,29.8,28.4,00.0,38.2,31.3,15.2,0004.3,0013.36,0021.94,0011.75
2023-05-02 21:01:00,,0828.8,5.00,0.00,29.8,28.4,00.0,38.2,31.3,15.3,0004.3,0013.31,0022.29,0011.74
2023-05-02 21:02:00,,0828.8,5.00,0.00,29.8,28.4,00.0,38.2,31.3,15.4,0004.5,0013.34,0023.93,0011.73
2023-05-02 21:03:00,,0828.8,5.00,0.00,29.8,28.4,00.0,38.2,31.3,15.5,0004.7,0013.45,0024.58,0011.73
2023-05-02 21:04:00,,0828.8,5.00,0.00,29.8,28.4,00.0,38.2,31.3,15.5,0004.7,0013.50,0024.60,0011.70
2023-05-02 21:05:00,,0828.8,5.00,0.00,29.8,28.5,00.0,38.2,31.4,15.4,0004.9,0013.44,0024.58,0011.64
2023-05-02 21:06:00,,0828.8,5.00,0.00,29.8,28.5,00.0,38.2,31.4,15.3,0005.0,0013.47,0025.48,0011.58
2023-05-02 21:07:00,,0828.8,5.00,0.00,29.9,28.5,00.0,38.2,31.4,15.4,0005.0,0013.35,0025.80,0011.52
2023-05-02 21:08:00,,0828.8,5.01,0.00,29.9,28.5,00.0,38.2,31.4,15.3,0005.0,0013.33,0025.84,0011.51
2023-05-02 21:09:00,,0828.8,5.00,0.00,29.9,28.6,00.0,38.2,31.5,15.3,0004.8,0013.43,0026.67,0011.55
2023-05-02 21:10:00,,0828.9,5.01,0.00,29.9,28.6,00.0,38.3,31.5,15.3,0004.7,0013.45,0027.76,0011.54
2023-05-02 21:11:00,,0829.0,4.98,0.00,29.9,28.7,00.0,38.3,31.5,15.2,0004.4,0013.35,0027.53,0011.49
2023-05-02 21:12:00,,0829.0,5.00,0.00,29.9,28.6,00.0,38.3,31.5,15.2,0004.4,0013.34,0028.39,0011.47
2023-05-02 21:13:00,,0829.0,5.00,0.00,29.9,28.6,00.0,38.3,31.4,15.2,0004.3,0013.37,0027.38,0011.50
2023-05-02 21:14:00,,0828.9,5.00,0.00,29.9,28.6,00.0,38.3,31.4,15.3,0004.2,0013.32,0027.37,0011.50
2023-05-02 21:15:00,,0828.9,5.00,0.00,29.9,28.6,00.0,38.3,31.4,15.2,0004.2,0013.28,0027.36,0011.51
2023-05-02 21:16:00,,0829.0,5.00,0.00,29.9,28.6,00.0,38.3,31.4,15.3,0004.1,0013.28,0029.51,0011.52
2023-05-02 21:17:00,,0828.9,5.01,0.00,29.9,28.5,00.0,38.3,31.3,15.2,0003.9,0013.27,0029.77,0011.53
2023-05-02 21:18:00,,0829.0,5.00,0.00,29.8,28.5,00.0,38.3,31.3,15.3,0003.7,0013.35,0029.68,0011.56
2023-05-02 21:19:00,,0829.0,4.99,0.00,29.8,28.5,00.0,38.3,31.3,15.3,0003.8,0013.38,0030.65,0011.58
2023-05-02 21:20:00,,0829.0,4.99,0.00,29.8,28.5,00.0,38.3,31.4,15.5,0003.9,0013.33,0030.10,0011.53
2023-05-02 21:21:00,,0829.0,5.00,0.00,29.8,28.4,00.0,38.3,31.3,15.4,0004.0,0013.32,0029.21,0011.52
2023-05-02 21:22:00,,0829.0,5.00,0.00,29.8,28.4,00.0,38.3,31.3,15.2,0004.3,0013.43,0029.91,0011.54
2023-05-02 21:23:00,,0828.9,5.00,0.00,29.8,28.4,00.0,38.3,31.3,15.3,0004.4,0013.42,0029.08,0011.55
2023-05-02 21:24:00,,0829.0,5.00,0.00,29.8,28.3,00.0,38.3,31.3,15.2,0004.6,0013.40,0029.83,0011.51
2023-05-02 21:25:00,,0828.9,4.99,0.00,29.8,28.3,00.0,38.3,31.3,15.3,0004.6,0013.46,0031.08,0011.49
2023-05-02 21:26:00,,0828.9,5.00,0.00,29.8,28.3,00.0,38.3,31.2,15.3,0004.7,0013.43,0031.47,0011.44
2023-05-02 21:27:00,,0828.9,5.00,0.00,29.8,28.3,00.0,38.3,31.2,15.2,0004.6,0013.46,0029.49,0011.42
2023-05-02 21:28:00,,0828.9,5.01,0.00,29.7,28.3,00.0,38.3,31.2,15.2,0004.5,0013.39,0028.11,0011.39
2023-05-02 21:29:00,,0829.0,5.00,0.00,29.7,28.3,00.0,38.2,31.2,15.3,0004.4,0013.30,0027.70,0011.33
2023-05-02 21:30:00,,0829.0,5.00,0.00,29.7,28.3,00.0,38.2,31.2,15.5,0004.4,0013.27,0026.70,0011.29
2023-05-02 21:31:00,,0829.0,5.00,0.00,29.7,28.3,00.0,38.2,31.2,15.3,0004.4,0013.29,0027.53,0011.28
2023-05-02 21:32:00,,0829.0,5.00,0.00,29.7,28.3,00.0,38.2,31.2,15.3,0004.4,0013.30,0029.32,0011.27
2023-05-02 21:33:00,,0829.0,5.01,0.00,29.7,28.2,00.0,38.2,31.2,15.3,0004.3,0013.23,0029.34,0011.20
2023-05-02 21:34:00,,0829.0,5.00,0.00,29.7,28.2,00.0,38.2,31.2,15.3,0004.3,0013.17,0029.70,0011.12
2023-05-02 21:35:00,,0829.0,5.00,0.00,29.7,28.2,00.0,38.2,31.2,15.2,0004.1,0013.10,0028.90,0011.07
2023-05-02 21:36:00,,0828.9,5.01,0.00,29.7,28.2,00.0,38.2,31.2,15.2,0003.8,0012.98,0027.75,0011.00
2023-05-02 21:37:00,,0828.9,4.99,0.00,29.7,28.2,00.0,38.2,31.2,15.3,0003.8,0012.90,0027.10,0010.95
2023-05-02 21:38:00,,0828.9,5.00,0.00,29.7,28.2,00.0,38.2,31.2,15.4,0003.7,0012.81,0026.96,0010.88
2023-05-02 21:39:00,,0828.8,5.00,0.00,29.7,28.2,00.0,38.2,31.2,15.5,0003.9,0012.70,0026.96,0010.77
2023-05-02 21:40:00,,0828.8,5.01,0.00,29.7,28.2,00.0,38.2,31.2,15.3,0003.9,0012.66,0027.35,0010.72
2023-05-02 21:41:00,,0828.8,5.00,0.00,29.7,28.2,00.0,38.2,31.1,15.2,0003.7,0012.56,0027.12,0010.63
2023-05-02 21:42:00,,0828.8,5.00,0.00,29.7,28.2,00.0,38.2,31.2,15.3,0003.6,0012.36,0026.91,0010.53
2023-05-02 21:43:00,,0828.8,5.00,0.00,29.7,28.2,00.0,38.2,31.2,15.2,0003.4,0012.30,0027.16,0010.43
2023-05-02 21:44:00,,0828.8,5.01,0.00,29.7,28.2,00.0,38.2,31.2,15.3,0003.4,0012.23,0027.25,0010.34
2023-05-02 21:45:00,,0828.8,5.00,0.00,29.6,28.2,00.0,38.2,31.2,15.3,0003.3,0012.20,0027.34,0010.30
2023-05-02 21:46:00,,0828.8,5.00,0.00,29.6,28.2,00.0,38.2,31.2,15.4,0003.2,0012.15,0026.84,0010.23
2023-05-02 21:47:00,,0828.7,5.00,0.00,29.6,28.1,00.0,38.1,31.1,15.3,0003.6,0012.07,0026.04,0010.17
2023-05-02 21:48:00,,0828.6,5.00,0.00,29.6,28.1,00.0,38.1,31.1,15.5,0003.7,0012.07,0027.04,0010.10
2023-05-02 21:49:00,,0828.7,5.00,0.00,29.6,28.1,00.0,38.1,31.1,15.3,0003.8,0012.02,0027.85,0010.02
2023-05-02 21:50:00,,0828.6,5.00,0.00,29.6,28.1,00.0,38.1,31.1,15.4,0003.6,0012.03,0028.20,0009.98
2023-05-02 21:51:00,,0828.6,5.00,0.00,29.6,28.1,00.0,38.1,31.1,15.4,0003.6,0012.01,0028.23,0009.92
2023-05-02 21:52:00,,0828.6,5.00,0.00,29.6,28.1,00.0,38.1,31.1,15.3,0003.3,0012.00,0028.36,0009.88
2023-05-02 21:53:00,,0828.6,5.00,0.00,29.6,28.1,00.0,38.1,31.1,15.3,0003.2,0012.01,0027.79,0009.86
2023-05-02 21:54:00,,0828.6,4.99,0.00,29.6,28.1,00.0,38.1,31.1,15.4,0003.1,0011.92,0025.82,0009.86
2023-05-02 21:55:00,,0828.6,5.00,0.00,29.6,28.1,00.0,38.1,31.1,15.3,0003.0,0011.81,0025.42,0009.84
2023-05-02 21:56:00,,0828.6,5.02,0.00,29.6,28.2,00.0,38.1,31.1,15.3,0003.1,0011.70,0024.94,0009.76
2023-05-02 21:57:00,,0828.6,5.01,0.00,29.6,28.2,00.0,38.1,31.1,15.3,0003.3,0011.65,0025.41,0009.72
2023-05-02 21:58:00,,0828.5,5.00,0.00,29.6,28.2,00.0,38.1,31.2,15.2,0003.5,0011.58,0026.17,0009.70
2023-05-02 21:59:00,,0828.5,4.99,0.00,29.6,28.3,00.0,38.1,31.2,15.3,0003.5,0011.53,0025.28,0009.68
